星链-3325 (STARLINK-3325 )

导读 | 星芒AI

STARLINK-3325 是 SpaceX Starlink 项目中的第 3325 颗卫星,属于其低轨卫星互联网星座的一部分。该卫星于 2024 年发射,运行在约 550 公里的近地轨道上,旨在为全球用户提供高速、低延迟的互联网服务。它采用先进的通信技术,支持 Ku 和 Ka 频段,具备自动避撞功能,以确保太空安全。Starlink 卫星群致力于改善偏远地区的网络接入,推动全球数字连接。

基本信息
目录编号:
50843
目录名称:
STARLINK-3325
国际标识:
2022-001AS
轨道中心:
EARTH
卫星名称:
星链-3325
卫星全名:
星链-3325 (STARLINK-3325 )
卫星状态:
在轨 (已飞行1444 天)
发射日期:
2022-01-06 UTC
国别 :
美国 (US)
星等 :
--
轨道信息
数据来源 国际轨道数据 AOE轨道数据
星历时间 2025-12-20T13:02:28+0800
7小时前
查看轨道信息
2025-12-13T22:00:00+0800
6天前
查看轨道信息
半长轴 6917.891km 6917.892km
偏心率 0.0001493 0.0001461
轨道倾角 53.217° 53.215°
近地点辐角 87.121° 78.094°
升交点赤经 175.917° 205.666°
平近点角 272.995° 267.329°
近地点 538.721km 538.746km
远地点 540.787km 540.768km
周期 95.438分钟 95.438分钟
每日圈数 15.088367 15.088365
详细信息
固有亮度:
5
最大亮度:
2.5
卫星平台:
Starlink v1.5
覆盖范围:
全球
运营商:
太空探索技术公司
运营商所在国:
美国
制造商(研发单位):
太空探索技术公司
制造商所在国:
美国
使用方式:
暂无
卫星简介
星链(Starlink)计划是由太空探索技术公司(SpaceX)提出的一个巨型低轨卫星互联网星座项目,计划在2019年至2024年间在太空搭建由约1.2万颗卫星组成的“星链”网络,其中1584颗将部署在地球上空550千米处的近地轨道,并从2020年开始工作。该卫星仍在工作。
2D轨道图
3D轨道图
轨道高度分析图
轨道倾角分析图
轨道综合分析图
查看轨道综合分析图